WetterOnline ( https://www.wetteronline.de )

Wetter aktuell Ostrava

Aktuelles Wetter: Ostrava (260m)

6-stündlich | Neueste Meldungen
Ortszeit Temperatur Wetter
Di, 19.11. 7:00 10.6° C leicht bewölkt
Di, 19.11. 1:00 9.1° C fast wolkenlos
Mo, 18.11. 19:00 8.7° C wolkig
Mo, 18.11. 13:00 14.2° C bedeckt
Mo, 18.11. 7:00 13.5° C leicht bewölkt
Mo, 18.11. 1:00 14.9° C wolkig
So, 17.11. 19:00 14.1° C wolkig
So, 17.11. 13:00 18.0° C leicht bewölkt
Ortszeit Temperatur Wetter
Di, 19.11. 8:00 9.5° C leicht bewölkt
Di, 19.11. 7:30 10° C -
Di, 19.11. 7:00 10.6° C leicht bewölkt
Di, 19.11. 6:30 10° C -
Di, 19.11. 6:00 10.7° C leicht bewölkt
Di, 19.11. 5:30 5° C -
Di, 19.11. 5:00 10.4° C leicht bewölkt
Di, 19.11. 4:30 6° C -
Ortszeit Relative Feuchte Sichtweite
Di, 19.11. 7:00 60% 30 km
Di, 19.11. 1:00 65% 30 km
Mo, 18.11. 19:00 89% 25 km
Mo, 18.11. 13:00 69% 25 km
Mo, 18.11. 7:00 65% 25 km
Mo, 18.11. 1:00 53% 25 km
So, 17.11. 19:00 55% 25 km
So, 17.11. 13:00 58% 25 km
Ortszeit Relative Feuchte Sichtweite
Di, 19.11. 8:00 65% 30 km
Di, 19.11. 7:30 62% >10 km
Di, 19.11. 7:00 60% 30 km
Di, 19.11. 6:30 62% >10 km
Di, 19.11. 6:00 60% 30 km
Di, 19.11. 5:30 81% >10 km
Di, 19.11. 5:00 62% 30 km
Di, 19.11. 4:30 81% >10 km
Ortszeit Niederschlagsmenge Niederschlagsart
Di, 19.11. 7:00 0.0 l/m2 in 12 Std. -
Di, 19.11. 1:00 0.0 l/m2 in 6 Std. -
Mo, 18.11. 19:00 0.1 l/m2 in 12 Std. Regen
Mo, 18.11. 13:00 0.1 l/m2 in 6 Std. Regen
Mo, 18.11. 7:00 0.0 l/m2 in 12 Std. -
Mo, 18.11. 1:00 0.0 l/m2 in 6 Std. -
So, 17.11. 19:00 0.0 l/m2 in 12 Std. -
So, 17.11. 13:00 0.0 l/m2 in 6 Std. Nebel
Ortszeit Niederschlagsmenge Niederschlagsart
Di, 19.11. 8:00 0.0 l/m2 in 1 Std. -
Di, 19.11. 7:30 keine Meldung -
Di, 19.11. 7:00 0.0 l/m2 in 1 Std. -
Di, 19.11. 6:30 keine Meldung -
Di, 19.11. 6:00 0.0 l/m2 in 1 Std. -
Di, 19.11. 5:30 keine Meldung -
Di, 19.11. 5:00 0.0 l/m2 in 1 Std. -
Di, 19.11. 4:30 keine Meldung -
Ortszeit Stärke Spitze Richtung
km/h Bft. km/h Grad Sektor
Di, 19.11. 7:00 14 3 - 200° S
Di, 19.11. 1:00 11 2 - 190° S
Mo, 18.11. 19:00 7 2 43 210° SW
Mo, 18.11. 13:00 18 3 - 190° S
Mo, 18.11. 7:00 7 2 - uml. uml.
Mo, 18.11. 1:00 11 2 - 180° S
So, 17.11. 19:00 11 2 - 100° O
So, 17.11. 13:00 11 2 - 100° O
Ortszeit Stärke Spitze Richtung
km/h Bft. km/h Grad Sektor
Di, 19.11. 8:00 11 2 - 210° SW
Di, 19.11. 7:30 15 3 35 190° S
Di, 19.11. 7:00 14 3 - 200° S
Di, 19.11. 6:30 9 2 - 200° S
Di, 19.11. 6:00 4 1 - uml. uml.
Di, 19.11. 5:30 6 1 - 100° O
Di, 19.11. 5:00 7 2 - uml. uml.
Di, 19.11. 4:30 4 1 - uml. uml.
Ortszeit Untergrenze Bedeckung Gattung
total tief tief mittel hoch
Di, 19.11. 7:00 3000 m 4/8 1/8 - Ac Ci
Di, 19.11. 1:00 6900 m 1/8 0/8 - - Ci
Mo, 18.11. 19:00 840 m 5/8 5/8 Sc - -
Mo, 18.11. 13:00 1050 m 8/8 8/8 Sc - -
Mo, 18.11. 7:00 2400 m 6/8 6/8 - Ac Ci
Mo, 18.11. 1:00 5400 m 7/8 6/8 - As Ci
So, 17.11. 19:00 4800 m 7/8 6/8 - As Ci
So, 17.11. 13:00 6900 m 5/8 0/8 - - Ci
Ortszeit Bedeckungsgrad in Achtel und Wolkenuntergrenze
Di, 19.11. 8:00 2(3900m) 3(6900m)
Di, 19.11. 7:30 keine Wolken(unter 1500 m)
Di, 19.11. 7:00 1(3000m) 4(7800m)
Di, 19.11. 6:30 keine Wolken(unter 1500 m)
Di, 19.11. 6:00 2(7800m)
Di, 19.11. 5:30 keine Wolken(unter 1500 m)
Di, 19.11. 5:00 2(7800m)
Di, 19.11. 4:30 keine Wolken(unter 1500 m)
Ortszeit Luftdruck NN (hPa) Tendenz (hPa in 3 Std.)
Di, 19.11. 7:00 1020 + 1,1
Di, 19.11. 1:00 1018 + 1,2
Mo, 18.11. 19:00 1015 + 3,5
Mo, 18.11. 13:00 1009 + 0,3
Mo, 18.11. 7:00 1009 + 0,2
Mo, 18.11. 1:00 1010 - 1,1
So, 17.11. 19:00 1012 - 0,3
So, 17.11. 13:00 1012 - 1,6
Ortszeit Luftdruck NN (hPa) Tendenz (hPa in 3 Std.)
Di, 19.11. 8:00 1020 + 1,5
Di, 19.11. 7:30 1019 keine Meldung
Di, 19.11. 7:00 1020 + 1,1
Di, 19.11. 6:30 1019 keine Meldung
Di, 19.11. 6:00 1019 + 0,5
Di, 19.11. 5:30 1018 keine Meldung
Di, 19.11. 5:00 1019 + 0,3
Di, 19.11. 4:30 1018 keine Meldung
Ortszeit Schneehöhe (cm)
Di, 19.11. 7:00 -
Di, 19.11. 1:00 -
Mo, 18.11. 19:00 -
Mo, 18.11. 13:00 -
Mo, 18.11. 7:00 -
Mo, 18.11. 1:00 -
So, 17.11. 19:00 -
So, 17.11. 13:00 -
Ortszeit Schneehöhe (cm)
Di, 19.11. 8:00 -
Di, 19.11. 7:30 -
Di, 19.11. 7:00 -
Di, 19.11. 6:30 -
Di, 19.11. 6:00 -
Di, 19.11. 5:30 -
Di, 19.11. 5:00 -
Di, 19.11. 4:30 -
Link zu dieser Seite / Seite empfehlen

Das Wetter in ...